KD4EG Weather Reports


time (UTC)temp
C
wind
direction
speed
KPH
gust
KPH
rain 1hr
cm
rain 24hr
cm
rain mn
cm
humidity
%
barometer
mb
20260502160615 13 274 3.2 4.8 0.00 0.00 0.00 43 1016.8
20260502160114 13 284 6.4 8.0 0.00 0.00 0.00 42 1016.8
20260502152028 13 321 4.8 4.8 0.00 0.00 0.00 47 1016.7
20260502151525 13 314 1.6 3.2 0.00 0.00 0.00 46 1017.1
20260502151022 12 299 3.2 3.2 0.00 0.00 0.00 47 1016.8
20260502150520 11 296 1.6 3.2 0.00 0.00 0.00 49 1016.7
20260502130405 10 294 1.6 1.6 0.00 0.00 0.00 52 1016.8
20260502123347 9 300 1.6 1.6 0.00 0.00 0.00 54 1016.7
20260502122844 9 320 4.8 4.8 0.00 0.00 0.00 54 1016.8
20260502122340 9 324 3.2 3.2 0.00 0.00 0.00 53 1016.8
20260502121839 9 206 3.2 3.2 0.00 0.00 0.00 55 1017.1
20260502121336 9 296 1.6 1.6 0.00 0.00 0.00 54 1016.9
20260502120833 9 281 4.8 4.8 0.00 0.00 0.00 55 1016.8
20260502120329 9 312 1.6 1.6 0.00 0.00 0.00 56 1016.5
20260502115827 9 301 0.0 0.0 0.00 0.00 0.00 57 1016.8
20260502115324 9 312 1.6 1.6 0.00 0.00 0.00 56 1016.5
20260502114820 9 308 0.0 1.6 0.00 0.00 0.00 55 1016.7
20260502114317 9 299 1.6 1.6 0.00 0.00 0.00 56 1016.3
20260502113814 9 303 1.6 3.2 0.00 0.00 0.00 55 1016.3
20260502113312 9 270 0.0 1.6 0.00 0.00 0.00 54 1016.3
20260502112810 9 281 1.6 1.6 0.00 0.00 0.00 55 1016.3
20260502112307 9 308 0.0 0.0 0.00 0.00 0.00 54 1016.4
20260502111804 9 302 1.6 1.6 0.00 0.00 0.00 54 1016.2
20260502111301 9 300 0.0 0.0 0.00 0.00 0.00 53 1016.3
20260502110759 9 285 4.8 4.8 0.00 0.00 0.00 53 1016.4
20260502110256 9 314 1.6 1.6 0.00 0.00 0.00 53 1016.3
20260502105754 9 307 0.0 0.0 0.00 0.00 0.00 55 1016.0
20260502105250 9 298 0.0 0.0 0.00 0.00 0.00 54 1016.0
20260502104748 9 308 0.0 0.0 0.00 0.00 0.00 54 1016.2
20260502104245 9 283 3.2 3.2 0.00 0.00 0.00 52 1016.2
20260502103743 9 291 3.2 3.2 0.00 0.00 0.00 51 1016.3
20260502103240 9 294 1.6 3.2 0.00 0.00 0.00 51 1016.3
20260502102738 9 281 0.0 1.6 0.00 0.00 0.00 52 1016.4
20260502102233 9 332 3.2 4.8 0.00 0.00 0.00 52 1016.2
20260502101732 10 299 1.6 1.6 0.00 0.00 0.00 51 1016.0
20260502101230 10 344 4.8 8.0 0.00 0.00 0.00 50 1016.3
20260502100727 10 283 3.2 4.8 0.00 0.00 0.00 50 1016.3
20260502100226 10 301 3.2 3.2 0.00 0.00 0.00 50 1016.4
20260502091200 10 314 4.8 4.8 0.00 0.00 0.00 50 1016.2
20260502090657 10 250 3.2 3.2 0.00 0.00 0.00 53 1015.9
20260502090154 10 301 1.6 1.6 0.00 0.00 0.00 56 1015.9
20260502071055 11 304 1.6 1.6 0.00 0.00 0.00 67 1015.5
20260502070553 11 319 4.8 4.8 0.00 0.00 0.00 66 1015.7
20260502070051 11 315 3.2 3.2 0.00 0.00 0.00 66 1015.9
20260502065549 11 297 1.6 1.6 0.00 0.00 0.00 66 1015.9
20260502065047 11 319 6.4 8.0 0.00 0.00 0.00 66 1016.0
20260502064545 11 302 4.8 8.0 0.00 0.00 0.00 66 1015.7
20260502064042 11 293 3.2 3.2 0.00 0.00 0.00 66 1015.8
20260502063539 11 255 1.6 1.6 0.00 0.00 0.00 66 1015.5
20260502063037 11 293 1.6 3.2 0.00 0.00 0.00 65 1015.7
20260502062534 11 316 1.6 3.2 0.00 0.00 0.00 65 1015.8
20260502062032 11 296 4.8 4.8 0.00 0.00 0.00 64 1016.0
20260502061530 11 284 3.2 4.8 0.00 0.00 0.00 65 1015.9
20260502061027 11 298 3.2 3.2 0.00 0.00 0.00 64 1015.9
20260502060522 11 316 3.2 4.8 0.00 0.00 0.00 64 1016.2
20260502060019 11 314 1.6 3.2 0.00 0.00 0.00 64 1015.9
20260502055516 11 274 1.6 3.2 0.00 0.00 0.00 63 1016.2
20260502055015 11 300 1.6 1.6 0.00 0.00 0.00 64 1015.8
20260502054513 11 279 6.4 8.0 0.00 0.00 0.00 63 1015.8
20260502054010 11 292 1.6 1.6 0.00 0.00 0.00 63 1015.5
20260502053507 11 292 4.8 4.8 0.00 0.00 0.00 63 1015.7
20260502053005 12 298 3.2 3.2 0.00 0.00 0.00 62 1015.8
20260502052503 12 289 6.4 8.0 0.00 0.00 0.00 62 1015.7
20260502052001 12 244 1.6 1.6 0.00 0.00 0.00 62 1015.9
20260502051459 12 329 3.2 3.2 0.00 0.00 0.00 61 1015.8
20260502050955 12 169 4.8 8.0 0.00 0.00 0.00 61 1015.9
20260502050452 12 296 3.2 3.2 0.00 0.00 0.00 61 1015.7
20260502045949 12 340 8.0 14.5 0.00 0.00 0.00 61 1015.9
20260502045446 12 111 3.2 4.8 0.00 0.00 0.00 61 1015.8
20260502044943 12 205 3.2 3.2 0.00 0.00 0.00 61 1015.8
20260502044438 12 324 1.6 1.6 0.00 0.00 0.00 61 1015.8
20260502043936 12 174 3.2 4.8 0.00 0.00 0.00 62 1015.7
20260502043434 12 292 3.2 3.2 0.00 0.00 0.00 62 1015.7
20260502042933 13 315 11.3 12.9 0.00 0.00 0.00 61 1015.6
20260502042430 13 266 1.6 3.2 0.00 0.00 0.00 62 1015.7
20260502041927 13 290 6.4 9.7 0.00 0.00 0.00 61 1015.6
20260502041425 13 323 4.8 4.8 0.00 0.00 0.00 63 1015.5
20260502040922 13 3 1.6 3.2 0.00 0.00 0.00 62 1015.5
20260502040418 13 278 4.8 4.8 0.00 0.00 0.00 62 1015.4
20260502035915 13 291 3.2 3.2 0.00 0.00 0.00 62 1015.6
20260502035411 13 124 3.2 3.2 0.00 0.00 0.00 62 1015.3
20260502034909 13 304 8.0 11.3 0.00 0.00 0.00 61 1015.6
20260502034408 13 303 3.2 3.2 0.00 0.00 0.00 62 1015.4
20260502033906 13 273 6.4 9.7 0.00 0.00 0.00 62 1015.4
20260502033403 13 290 8.0 11.3 0.00 0.00 0.00 62 1015.3
20260502032859 13 313 8.0 9.7 0.00 0.00 0.00 62 1015.1
20260502032355 13 315 4.8 8.0 0.00 0.00 0.00 62 1015.1
20260502031853 14 306 3.2 3.2 0.00 0.00 0.00 62 1014.9
20260502031351 14 314 17.7 25.7 0.00 0.00 0.00 61 1014.9
20260502030849 14 0 3.2 4.8 0.00 0.00 0.00 61 1014.9
20260502030347 14 232 8.0 14.5 0.00 0.00 0.00 61 1015.0
20260502025844 14 281 4.8 8.0 0.00 0.00 0.00 60 1014.9
20260502025342 14 353 9.7 12.9 0.00 0.00 0.00 60 1014.6
20260502024839 15 300 9.7 12.9 0.00 0.00 0.00 59 1014.9
20260502024337 15 299 1.6 3.2 0.00 0.00 0.00 58 1014.5
20260502023835 15 31 4.8 8.0 0.00 0.00 0.00 58 1014.6
20260502023332 15 282 6.4 11.3 0.00 0.00 0.00 56 1014.4
20260502022830 15 301 0.0 0.0 0.00 0.00 0.00 55 1014.6
20260502022326 15 300 4.8 9.7 0.00 0.00 0.00 55 1014.4
20260502021823 15 240 3.2 4.8 0.00 0.00 0.00 55 1014.4
20260502021320 15 358 4.8 4.8 0.00 0.00 0.00 56 1014.4
20260502020817 15 276 1.6 3.2 0.00 0.00 0.00 60 1013.7
20260502020315 15 317 1.6 3.2 0.00 0.00 0.00 65 1013.7
20260502015812 15 294 3.2 3.2 0.00 0.00 0.00 66 1013.8
20260502015309 15 288 1.6 1.6 0.00 0.00 0.00 67 1013.7
20260502014806 15 303 1.6 1.6 0.00 0.00 0.00 68 1013.6
20260502014303 15 307 3.2 3.2 0.00 0.00 0.00 67 1013.6
20260502013759 15 297 1.6 1.6 0.00 0.00 0.00 66 1013.4
20260502013255 15 315 1.6 1.6 0.00 0.00 0.00 65 1013.5
20260502012751 15 326 3.2 3.2 0.00 0.00 0.00 64 1013.3
20260502012249 15 300 1.6 3.2 0.00 0.00 0.00 64 1013.2
20260502011747 15 298 3.2 3.2 0.00 0.00 0.00 63 1013.3
20260502011242 15 291 0.0 1.6 0.00 0.00 0.00 62 1013.0
20260502010740 16 320 4.8 4.8 0.00 0.00 0.00 61 1012.8
20260502010236 16 305 1.6 3.2 0.00 0.00 0.00 60 1012.8
20260502005733 16 289 4.8 4.8 0.00 0.00 0.00 61 1012.7
20260502005231 16 319 0.0 1.6 0.00 0.00 0.00 61 1012.6
20260502004727 16 304 1.6 1.6 0.00 0.00 0.00 60 1012.4
20260502004224 16 326 0.0 0.0 0.00 0.00 0.00 59 1012.4
20260502003722 16 300 1.6 1.6 0.00 0.00 0.00 58 1012.5
20260502003219 16 303 4.8 4.8 0.00 0.00 0.00 57 1012.4
20260502002714 17 4 3.2 4.8 0.00 0.00 0.00 56 1012.3
20260502002213 17 283 3.2 3.2 0.00 0.00 0.00 56 1012.0
20260502001709 17 266 3.2 4.8 0.00 0.00 0.00 56 1012.1
20260502001208 17 316 0.0 1.6 0.00 0.00 0.00 57 1011.9
20260502000704 17 290 3.2 3.2 0.00 0.00 0.00 54 1011.9
20260502000204 17 299 1.6 3.2 0.00 0.00 0.00 53 1011.8
20260501235658 17 291 1.6 1.6 0.00 0.00 0.00 53 1011.6
20260501235154 18 304 0.0 1.6 0.00 0.00 0.00 54 1011.5
20260501234650 18 314 0.0 0.0 0.00 0.00 0.00 54 1011.5
20260501234147 18 305 0.0 1.6 0.00 0.00 0.00 55 1011.4
20260501233645 18 314 0.0 0.0 0.00 0.00 0.00 54 1011.3
20260501233142 18 314 0.0 0.0 0.00 0.00 0.00 53 1011.2
20260501232638 18 315 0.0 0.0 0.00 0.00 0.00 49 1011.2
20260501232136 19 261 1.6 1.6 0.00 0.00 0.00 49 1011.3
20260501231633 20 201 4.8 4.8 0.00 0.00 0.00 47 1011.3
20260501231131 20 163 9.7 12.9 0.00 0.00 0.00 44 1011.2
20260501230630 20 310 8.0 12.9 0.00 0.00 0.00 43 1011.5
20260501230128 20 318 1.6 1.6 0.00 0.00 0.00 44 1011.3
20260501225625 20 275 3.2 3.2 0.00 0.00 0.00 46 1010.9
20260501225121 20 241 4.8 4.8 0.00 0.00 0.00 44 1011.2
20260501224618 20 143 4.8 8.0 0.00 0.00 0.00 45 1011.2
20260501224115 20 148 6.4 9.7 0.00 0.00 0.00 46 1011.3
20260501223612 20 168 4.8 8.0 0.00 0.00 0.00 45 1011.3
20260501223108 20 182 8.0 9.7 0.00 0.00 0.00 45 1011.2
20260501222604 20 148 6.4 8.0 0.00 0.00 0.00 45 1011.3
20260501222101 20 152 8.0 9.7 0.00 0.00 0.00 45 1011.3
20260501221558 20 179 6.4 8.0 0.00 0.00 0.00 46 1011.3
20260501221055 20 151 8.0 14.5 0.00 0.00 0.00 46 1011.4
20260501220553 20 191 4.8 8.0 0.00 0.00 0.00 46 1011.5
20260501220050 20 232 6.4 8.0 0.00 0.00 0.00 47 1011.5
20260501215546 19 177 6.4 8.0 0.00 0.00 0.00 46 1011.4
20260501215041 19 189 6.4 8.0 0.00 0.00 0.00 46 1011.5
20260501214537 20 115 8.0 12.9 0.00 0.00 0.00 46 1011.7
20260501214033 19 265 3.2 3.2 0.00 0.00 0.00 47 1011.7
20260501213530 19 140 4.8 8.0 0.00 0.00 0.00 47 1011.6
20260501213026 19 201 8.0 9.7 0.00 0.00 0.00 46 1011.6
20260501212522 20 209 4.8 4.8 0.00 0.00 0.00 45 1011.8
20260501212020 20 186 9.7 12.9 0.00 0.00 0.00 45 1011.7
20260501211516 19 179 9.7 11.3 0.00 0.00 0.00 46 1011.9
20260501211015 19 163 4.8 8.0 0.00 0.00 0.00 46 1011.8
20260501210510 20 208 8.0 9.7 0.00 0.00 0.00 46 1011.8
20260501210007 19 181 4.8 11.3 0.00 0.00 0.00 45 1012.0
20260501205504 18 271 4.8 8.0 0.00 0.00 0.00 46 1012.0
20260501205002 19 160 8.0 9.7 0.00 0.00 0.00 46 1012.0
20260501204457 19 180 6.4 9.7 0.00 0.00 0.00 46 1012.0
20260501203954 19 235 8.0 11.3 0.00 0.00 0.00 45 1012.0
20260501203450 19 142 8.0 12.9 0.00 0.00 0.00 44 1011.9
20260501202948 19 138 4.8 4.8 0.00 0.00 0.00 44 1012.3
20260501202444 19 219 4.8 8.0 0.00 0.00 0.00 45 1012.5
20260501201941 20 222 9.7 12.9 0.00 0.00 0.00 43 1012.4
20260501201438 20 299 1.6 3.2 0.00 0.00 0.00 42 1012.6
20260501200935 20 190 1.6 3.2 0.00 0.00 0.00 37 1012.5
20260501200432 20 157 8.0 9.7 0.00 0.00 0.00 36 1012.7
20260501195930 21 290 4.8 8.0 0.00 0.00 0.00 37 1012.6
20260501195426 20 92 3.2 3.2 0.00 0.00 0.00 37 1012.7
20260501194921 20 296 1.6 1.6 0.00 0.00 0.00 40 1012.8
20260501194418 21 210 3.2 3.2 0.00 0.00 0.00 37 1013.0
20260501193914 20 266 3.2 4.8 0.00 0.00 0.00 37 1013.2
20260501193412 20 178 6.4 8.0 0.00 0.00 0.00 41 1013.5
20260501192910 20 252 3.2 3.2 0.00 0.00 0.00 42 1013.4
20260501192407 20 270 1.6 3.2 0.00 0.00 0.00 43 1013.3
20260501191904 21 190 9.7 11.3 0.00 0.00 0.00 40 1013.3
20260501191401 21 314 1.6 3.2 0.00 0.00 0.00 44 1013.9
20260501190858 21 262 4.8 4.8 0.00 0.00 0.00 43 1014.0
20260501190354 20 285 3.2 3.2 0.00 0.00 0.00 45 1013.9
20260501185848 20 280 3.2 4.8 0.00 0.00 0.00 44 1014.1
20260501185345 20 202 8.0 11.3 0.00 0.00 0.00 44 1014.1
20260501184841 20 275 1.6 1.6 0.00 0.00 0.00 47 1014.3
20260501184337 20 120 6.4 9.7 0.00 0.00 0.00 43 1014.4
20260501183833 18 291 4.8 8.0 0.00 0.00 0.00 46 1014.1
20260501183330 18 200 9.7 9.7 0.00 0.00 0.00 47 1014.4
20260501182826 18 183 9.7 11.3 0.00 0.00 0.00 46 1014.3
20260501182324 18 278 4.8 4.8 0.00 0.00 0.00 44 1014.5
20260501181820 18 202 3.2 3.2 0.00 0.00 0.00 44 1014.7
20260501181317 18 227 8.0 11.3 0.00 0.00 0.00 44 1014.9
20260501180814 18 246 4.8 4.8 0.00 0.00 0.00 43 1014.9
20260501180310 18 278 4.8 8.0 0.00 0.00 0.00 44 1015.2
20260501175808 19 177 6.4 9.7 0.00 0.00 0.00 44 1015.1
20260501175306 18 152 3.2 8.0 0.00 0.00 0.00 46 1015.2
20260501174801 18 202 3.2 4.8 0.00 0.00 0.00 46 1015.2
20260501174259 18 199 6.4 8.0 0.00 0.00 0.00 44 1015.2
20260501173756 18 318 4.8 4.8 0.00 0.00 0.00 44 1015.5
20260501173253 18 211 4.8 4.8 0.00 0.00 0.00 44 1015.6
20260501172749 17 207 6.4 9.7 0.00 0.00 0.00 45 1015.6
20260501172244 17 200 4.8 4.8 0.00 0.00 0.00 46 1015.5
20260501171740 17 206 6.4 12.9 0.00 0.00 0.00 48 1015.7
20260501171237 16 230 3.2 4.8 0.00 0.00 0.00 48 1015.6
20260501170734 17 207 8.0 11.3 0.00 0.00 0.00 47 1016.0
20260501170231 17 248 4.8 4.8 0.00 0.00 0.00 44 1016.3
20260501165728 17 193 8.0 9.7 0.00 0.00 0.00 44 1016.0
20260501165226 17 302 3.2 3.2 0.00 0.00 0.00 46 1016.2
20260501164724 16 146 4.8 4.8 0.00 0.00 0.00 49 1016.3
20260501164220 16 158 4.8 4.8 0.00 0.00 0.00 48 1016.5
20260501163717 16 192 8.0 9.7 0.00 0.00 0.00 49 1016.5
20260501163214 16 295 1.6 3.2 0.00 0.00 0.00 51 1016.7
20260501162710 16 187 8.0 9.7 0.00 0.00 0.00 49 1016.8
20260501162206 16 185 6.4 8.0 0.00 0.00 0.00 50 1016.8
20260501161704 15 275 1.6 3.2 0.00 0.00 0.00 50 1016.8
20260501161201 15 183 9.7 12.9 0.00 0.00 0.00 51 1016.9